Flag for Angola Weather past 2 weeks in Lubango, Angola

Now
81 °F

Passing clouds.


Feels Like: 86 °F
Forecast: 46 / 78 °F
Wind: 3 mph from North

Location: Luanda Airport

Current Time: Apr 26, 2015 at 10:54:56 PM

Latest Report: Apr 26, 2015 at 10:00 PM


Visibility: N/A

Pressure: 29.92 "Hg

Humidity: 84%

Dew point: 75 °F

Location of LubangoLocation

Historic Weather in Lubango — Graph

°F

Lubango temperature yesterday

Maximum temperature yesterday: 84 °F (at 5:00 PM)
Minimum temperature yesterday: 75 °F (at 4:00 AM)
Average temperature yesterday: 79 °F

Past Weeks' High & Low Weather Summary

 TemperatureHumidityPressure
High90 °F (Apr 12, 3:00 PM)94% (Apr 15, 3:00 AM)30.04 "Hg (Apr 15, 3:00 AM)
Low75 °F (Apr 20, 1:00 AM)52% (Apr 20, 1:00 PM)29.74 "Hg (Apr 15, 4:00 PM)
Average81 °F79%29.88 "Hg
* Reported Apr 12 5:30 AM — Apr 26 9:00 PM, Lubango, Weather by CustomWeather, © 2015

Note: Actual official high and low records may vary slightly from our data, if they occured in-between our weather recording intervals... More about our weather records

Advertising

Lubango weather history for previous 24 hours

 ConditionsComfort  
Time TempWeatherWind HumidityBarometerVisibility
9:00 PM
Sun, Apr 26
81 °FPassing clouds.7 mph84%29.92 "HgN/A
8:00 PM81 °FPassing clouds.7 mph84%29.89 "HgN/A
7:00 PM81 °FPassing clouds.9 mph84%29.86 "HgN/A
6:00 PM82 °FPassing clouds.9 mph84%29.83 "HgN/A
5:00 PM84 °FPassing clouds.10 mph79%29.80 "HgN/A
4:00 PM86 °FPassing clouds.14 mph75%29.80 "HgN/A
3:00 PM86 °FPassing clouds.10 mph75%29.80 "HgN/A
2:00 PM86 °FPassing clouds.8 mph70%29.83 "HgN/A
1:00 PM86 °FPassing clouds.12 mph70%29.86 "HgN/A
9:00 AM84 °FScattered clouds.5 mph70%29.92 "HgN/A
8:00 AM79 °FScattered clouds.2 mph84%29.92 "HgN/A
6:00 AM75 °FPassing clouds.2 mph89%29.89 "HgN/A
5:00 AM75 °FClear.2 mph89%29.89 "Hg10 mi
4:00 AM75 °FPassing clouds.5 mph89%29.86 "HgN/A
3:00 AM77 °FPassing clouds.6 mph83%29.89 "HgN/A
1:00 AM77 °FPassing clouds.5 mph83%29.92 "HgN/A
11:00 PM
Sat, Apr 25
79 °FPassing clouds.9 mph79%29.95 "HgN/A
10:00 PM79 °FPassing clouds.9 mph84%29.92 "HgN/A
Weather by CustomWeather, © 2015

See weather overviewHow to use our weather pages